Torna al catalogo

LYNK TOWER 4

AttivoComunicazioniSSO
NORAD 55034·PAYLOAD·🇺🇸 United States

Lanciato Jan 3, 2023 da Cape Canaveral Space Force Station

Loading…

Prossimi Passaggi (prossime 24 ore)

TLE

AggiornatoSource: Space-Track

Epoca: Sep 14, 2026, 10:01 UTC

1 55034U 23001AB  26257.41739506  .00005757  00000-0  17450-3 0  9994
2 55034  97.3100 315.5147 0008720 148.7888 211.3874 15.34490849205501

Traccia LYNK TOWER 4 in tempo reale con AllMySat

Download on the App Store